Regional Weather Roundup
Issued by NWS

Home | Current Version | Previous Version | Graphics & Text | Print | Product List | Glossary On
Versions: 1 2 3 4 5 6 7 8 9 10 11 12 13 14 15 16 17 18 19 20 21 22 23 24 25 26 27 28 29 30 31 32 33 34 35 36 37 38 39 40 41 42 43 44 45 46 47 48 49 50
000
ASUS43 KMKX 260300
RWRWI

WISCONSIN REGIONAL WEATHER ROUNDUP
NATIONAL WEATHER SERVICE MILWAUKEE/SULLIVAN WI
1000 PM CDT THU AUG 25 2016

NOTE: "FAIR" INDICATES FEW OR NO CLOUDS BELOW 12,000 FEET WITH NO
SIGNIFICANT WEATHER AND/OR OBSTRUCTIONS TO VISIBILITY.

WIZ001-002-006>008-014>016-023>028-260400-
NORTHWEST WISCONSIN

CITY           SKY/WX    TMP DP  RH WIND       PRES   REMARKS
SUPERIOR ARPT  CLOUDY    63  55  77 W6        30.03S
ASHLAND        CLEAR     61  54  77 SW7       30.02S
HAYWARD        CLOUDY    58  53  84 CALM      30.06S
SIREN          CLOUDY    62  54  76 W5        30.07S
CUMBERLAND     CLEAR     55  52  88 W5        30.08S
RICE LAKE      CLEAR     57  52  84 CALM      30.09S
CHETEK         NOT AVBL
LADYSMITH      CLEAR     60  54  80 SW3       30.09R
EAU CLAIRE     NOT AVBL
MENOMONIE      CLEAR     62  55  78 CALM      30.09S
NEW RICHMOND   CLEAR     58  52  80 SW3       30.10R
OSCEOLA        CLEAR     59  54  82 CALM      30.12R
$$

WIZ003>005-009-010-017-018-260400-
NORTH CENTRAL WISCONSIN

CITY           SKY/WX    TMP DP  RH WIND       PRES   REMARKS
MANITOWISH WTR NOT AVBL
ARBOR VITAE    CLEAR     62  54  74 W5        30.04S
WOODRUFF       CLEAR     62  54  74 W5        30.04S
RHINELANDER    CLEAR     58  54  86 W5        30.06R
EAGLE RIVER    CLEAR     59  50  70 W6        30.03S
LAND O LAKES   CLEAR     59  52  77 W3        30.04R
PHILLIPS       CLEAR     57  54  88 W5        30.06R
TOMAHAWK       CLEAR     57  52  84 W3        30.06S
MEDFORD        CLEAR     59  57  93 W5        30.08R
MERRILL        PTCLDY    62  56  80 W3        30.07R
$$

WIZ029-030-035-036-043>047-260400-
CENTRAL WISCONSIN

CITY           SKY/WX    TMP DP  RH WIND       PRES   REMARKS
WAUSAU         CLEAR     63  55  75 W7        30.05R
MOSINEE        NOT AVBL
MARSHFIELD     CLEAR     61  54  77 W5        30.07R
STEVENS POINT  CLEAR     65  54  68 W7        30.07R
WAUPACA        CLEAR     68  61  76 W6        30.05R
WAUTOMA        CLEAR     64  61  90 W5        30.07R
WISC RAPIDS    CLEAR     65  56  72 NW8       30.09R
CAMP DOUGLAS   NOT AVBL
$$

WIZ011>013-019>022-031-037>040-048>050-260400-
NORTHEAST WISCONSIN

CITY           SKY/WX    TMP DP  RH WIND       PRES   REMARKS
ANTIGO         PTCLDY    60  55  82 W7        30.05S
SHAWANO        CLEAR     69  57  64 W6        30.03R
OCONTO         NOT AVBL
STURGEON BAY   CLEAR     70  61  73 W7        30.00S
GREEN BAY      CLEAR     68  62  81 W6        30.02R
MANITOWOC      NOT AVBL
APPLETON       CLEAR     66  57  72 W8        30.03R
CLINTONVILLE   CLEAR     64  55  72 W3        30.04R
OSHKOSH        CLEAR     68  62  81 CALM      30.04R
$$

WIZ032>034-041-042-053>061-260400-
SOUTHWEST WISCONSIN

CITY           SKY/WX    TMP DP  RH WIND       PRES   REMARKS
LA CROSSE      CLEAR     68  59  73 NW7       30.09R
SPARTA         CLEAR     60  58  92 CALM      30.10R
VIROQUA        CLEAR     64  61  92 W5        30.11R
BOSCOBEL       CLEAR     65  63  93 CALM      30.09R
PRAIRIE DU CHI CLEAR     65  62  88 CALM      30.09R
PLATTEVILLE    CLOUDY    65  64  97 SW6       30.10S
$$

WIZ056-057-062-063-064-067-068-260400-
SOUTH CENTRAL WISCONSIN

CITY           SKY/WX    TMP DP  RH WIND       PRES   REMARKS
REEDSBURG      NOT AVBL
BARABOO/DELLS  CLEAR     66  61  83 SW5       30.08R
LONE ROCK      NOT AVBL
MINERAL POINT  CLEAR     66  64  94 W3        30.10R
MADISON        PTCLDY    69  62  78 W3        30.07R
MIDDLETON      CLEAR     68  63  85 CALM      30.08S
WATERTOWN      PTCLDY    67  63  87 SW3       30.06S
MONROE         CLEAR     70  61  73 W7        30.09S
JANESVILLE     NOT AVBL
$$

WIZ051-052-058>065-066-070>072-260400-
SOUTHEAST WISCONSIN

CITY           SKY/WX    TMP DP  RH WIND       PRES   REMARKS
MILWAUKEE      MOCLDY    75  60  59 W6        30.05S
WAUKESHA       CLOUDY    68  59  73 W5        30.07S
MILWAUKEE/TIMM CLEAR     68  59  73 SW5       30.06S
RACINE         CLEAR     71  61  70 W3        30.07S
BURLINGTON     CLOUDY    65  60  83 CALM      30.07S
KENOSHA        CLOUDY    66  62  87 W3        30.07R
FOND DU LAC    CLEAR     68  61  78 SW6       30.05R
SHEBOYGAN      CLEAR     66  59  78 W6        30.03S
WEST BEND      CLEAR     68  61  77 W6        30.05S
JUNEAU         CLEAR     64  60  87 SW5       30.07S
$$

LSZ147-162-260400-
LAKE SUPERIOR

STATION/POSITION TIME  TEMP    WIND        PRES    WAVE
                       AIR SEA DIR/SP/G            HT/PER
                 (UTC) (F)     (DEG/KT/KT) (MB)    (FT/S)
W MID LAKE BUOY  0150   67 68  250/ 23/ 29 1013.1R   5/ 5
DEVILS ISLAND    0200   66     250/ 20/ 24 1015.1R
PORT WING        0200   65     220/  8/ 12 1016.6R
SAXON HARBOR     0240   63     200/  6/  8 1016.3R
$$

LMZ867-665-643>646-260400-
LAKE MICHIGAN

STATION/POSITION TIME  TEMP    WIND        PRES    WAVE
                       AIR SEA DIR/SP/G            HT/PER
                 (UTC) (F)     (DEG/KT/KT) (MB)    (FT/S)
CHAMBERS ISLAND  0200   72     210/  6/ 11 1014.6R
S GREEN BAY BUOY 0200   73 73  230/ 12/ 14 1015.1
N MID LAKE BUOY  0150   72 70  220/ 14/ 16 1013.4R   2/ 4
NORTHPORT PIER   0200   73     270/  4/  7 1014.2R
SISTER BAY       0207   74     280/ 12/ 15   N/A
KEWAUNEE LAKESHO 0200   72                 1015.4R
SHEBOYGAN LAKESH 0200   72     230/  5/  6 1016.1R
PORT WASHINGTON  0200   71     240/  3/  4 1017.6R
ATWATER BUOY     0200   69 59  300/  2/  2   N/A
MILWAUKEE LAKESH 0210   76     270/  5/  7   N/A
S MID LAKE BUOY  0150   74 75  210/  4/  4 1016.6R   1
KENOSHA   LAKESH 0200   75     280/  6/  8 1017.3R
$$

TC  - TEMPERATURE IN CELSIUS
VSB - VISIBILITY IN STATUTE MILES
WCI - WIND CHILL INDEX
HX  - HEAT INDEX




USA.gov is the U.S. government's official web portal to all federal, state and local government web resources and services.